STARLINK-1237 (45192 NORAD) Tracking and Keplerian Element Data

This shows tracking and keplerian element data for the satellite.

Feedback or suggestion? Click here.




ElementValue
Catalog45192
NameSTARLINK-1237
Epoch Orbit739
Epoch Day94.25001157
Epoch Year2020
RAAN52.1394
Inclination52.9999
Eccentricity0.0001668
Argument of Perigee69.0439
Mean Anonmoly212.0286
Mean Motion15.05593097
Decay Rate0.00018474
L11 45192U 20012Q 20094.25001157 .00018474 00000-0 12833-2 0 9995
L22 45192 52.9999 52.1394 0001668 69.0439 212.0286 15.05593097 7396

Live tracking and technical data element details for STARLINK-1237 (NORAD 45192). STARLINK-1237 can be tracked NOW for your location showing map with azimuth and elevation plus other details from your city location.

Track the satellite on the map from your city or location and see movement details for azimuth, elevation, latitude, longitude, range, height, and movement on the map or in text.







IsCatalogInMostPopularTable: catalog: 45192, numindb: 6
Update: records affected: 1



GetName: 45192 STARLINK-1237

Hit Count: updated at: Mon, 06 Apr 2020 11:39:33 GMT